THA112 ZHHH-ZSCN

Flight info

Callsign THA112
Flight time 0h 34m
Altitude 18700
Route XSH5E XSH W105 PEXEK
Aircraft A346/H-SDE2E3FGHIJ3J4J5M1RWXY/LB1D1

Departure

Time 2026-04-21 14:25
Airport Wuhan Tianhe International Airport (ZHHH)

Arrival

Time 2026-04-21 14:59
Airport Nanchang Changbei International Airport (ZSCN)
Time Latitude Longitude Altitude Speed Heading
2026-04-21 14:17 30.77236 114.22015 116 ft 0 kts 280°
2026-04-21 14:18 30.77233 114.22032 113 ft 3 kts 280°
2026-04-21 14:18 30.77229 114.22055 116 ft 3 kts 280°
2026-04-21 14:19 30.77226 114.22078 116 ft 3 kts 278°
2026-04-21 14:19 30.77223 114.22101 112 ft 3 kts 276°
2026-04-21 14:19 30.77222 114.22125 113 ft 3 kts 271°
2026-04-21 14:19 30.77222 114.22148 112 ft 3 kts 262°
2026-04-21 14:20 30.77227 114.22168 116 ft 3 kts 245°
2026-04-21 14:20 30.77235 114.22183 116 ft 2 kts 224°
2026-04-21 14:20 30.77237 114.22185 116 ft 0 kts 221°
2026-04-21 14:20 30.77233 114.22181 116 ft 4 kts 221°
2026-04-21 14:21 30.77213 114.22161 113 ft 4 kts 221°
2026-04-21 14:21 30.77151 114.22094 112 ft 17 kts 223°
2026-04-21 14:21 30.77059 114.22003 114 ft 17 kts 220°
2026-04-21 14:21 30.76965 114.21905 116 ft 19 kts 221°
2026-04-21 14:22 30.76858 114.21796 112 ft 22 kts 221°
2026-04-21 14:22 30.76739 114.21674 116 ft 24 kts 221°
2026-04-21 14:22 30.76604 114.21536 116 ft 26 kts 220°
2026-04-21 14:22 30.76467 114.21395 116 ft 27 kts 222°
2026-04-21 14:23 30.76321 114.21245 116 ft 28 kts 221°
2026-04-21 14:23 30.76204 114.21127 115 ft 18 kts 220°
2026-04-21 14:23 30.76116 114.21047 114 ft 13 kts 195°
2026-04-21 14:23 30.76043 114.21082 117 ft 13 kts 134°
2026-04-21 14:24 30.75978 114.21162 119 ft 15 kts 132°
2026-04-21 14:24 30.75962 114.21274 117 ft 15 kts 52°
2026-04-21 14:24 30.75992 114.21308 116 ft 3 kts 42°
2026-04-21 14:24 30.76253 114.21576 114 ft 99 kts 41°
2026-04-21 14:25 30.76992 114.22332 152 ft 177 kts 43°
2026-04-21 14:25 30.77969 114.23411 761 ft 206 kts 41°
2026-04-21 14:25 30.78957 114.24572 1870 ft 198 kts 49°
2026-04-21 14:25 30.79758 114.25892 2767 ft 207 kts 59°
2026-04-21 14:26 30.80490 114.27426 3458 ft 224 kts 58°
2026-04-21 14:26 30.81337 114.28990 4389 ft 231 kts 56°
2026-04-21 14:26 30.82230 114.30566 5379 ft 235 kts 57°
2026-04-21 14:26 30.82814 114.32351 6309 ft 242 kts 86°
2026-04-21 14:27 30.82503 114.34283 7217 ft 249 kts 118°
2026-04-21 14:27 30.81449 114.35906 8091 ft 255 kts 133°
2026-04-21 14:27 30.80236 114.37444 8979 ft 260 kts 135°
2026-04-21 14:27 30.79048 114.38937 9843 ft 262 kts 136°
2026-04-21 14:28 30.77850 114.40466 10763 ft 262 kts 136°
2026-04-21 14:28 30.76621 114.42056 11603 ft 267 kts 137°
2026-04-21 14:28 30.75367 114.43682 12375 ft 273 kts 138°
2026-04-21 14:28 30.74105 114.45373 13159 ft 280 kts 135°
2026-04-21 14:29 30.72932 114.47223 13900 ft 290 kts 129°
2026-04-21 14:29 30.71802 114.49250 14399 ft 307 kts 128°
2026-04-21 14:29 30.70625 114.51414 14837 ft 325 kts 127°
2026-04-21 14:29 30.69387 114.53703 15258 ft 343 kts 127°
2026-04-21 14:30 30.68081 114.56116 15651 ft 361 kts 127°
2026-04-21 14:30 30.66728 114.58613 16015 ft 379 kts 127°
2026-04-21 14:30 30.65282 114.61276 16368 ft 398 kts 127°
2026-04-21 14:30 30.63773 114.64055 16675 ft 415 kts 126°
2026-04-21 14:31 30.62199 114.66952 16986 ft 432 kts 126°
2026-04-21 14:31 30.60574 114.69940 17512 ft 441 kts 126°
2026-04-21 14:31 30.58930 114.72967 18172 ft 445 kts 126°
2026-04-21 14:31 30.57267 114.76025 18578 ft 448 kts 126°
2026-04-21 14:32 30.55600 114.79083 18672 ft 449 kts 126°
2026-04-21 14:32 30.53933 114.82143 18676 ft 448 kts 126°
2026-04-21 14:32 30.52260 114.85207 18678 ft 448 kts 126°
2026-04-21 14:32 30.50590 114.88261 18672 ft 448 kts 126°
2026-04-21 14:33 30.48920 114.91320 18668 ft 449 kts 125°
2026-04-21 14:33 30.47507 114.94566 18665 ft 453 kts 115°
2026-04-21 14:33 30.46576 114.98074 18670 ft 456 kts 105°
2026-04-21 14:33 30.46082 115.01725 18675 ft 459 kts 99°
2026-04-21 14:34 30.45715 115.05404 18673 ft 459 kts 98°
2026-04-21 14:34 30.45366 115.09079 18670 ft 459 kts 98°
2026-04-21 14:34 30.45003 115.12757 18669 ft 459 kts 99°
2026-04-21 14:34 30.44620 115.16430 18668 ft 458 kts 99°
2026-04-21 14:35 30.44225 115.20104 18670 ft 458 kts 100°
2026-04-21 14:35 30.43477 115.23609 18626 ft 450 kts 117°
2026-04-21 14:35 30.41757 115.26563 18657 ft 439 kts 139°
2026-04-21 14:35 30.39341 115.28615 18659 ft 427 kts 159°
2026-04-21 14:36 30.36598 115.29877 18682 ft 423 kts 165°
2026-04-21 14:36 30.33831 115.31052 18677 ft 423 kts 165°
2026-04-21 14:36 30.31066 115.32238 18675 ft 424 kts 165°
2026-04-21 14:36 30.28309 115.33436 18671 ft 424 kts 165°
2026-04-21 14:37 30.25551 115.34645 18671 ft 423 kts 164°
2026-04-21 14:37 30.22796 115.35857 18668 ft 424 kts 164°
2026-04-21 14:37 30.20042 115.37074 18669 ft 424 kts 164°
2026-04-21 14:37 30.17287 115.38292 18671 ft 424 kts 164°
2026-04-21 14:38 30.14534 115.39509 18671 ft 424 kts 164°
2026-04-21 14:38 30.11775 115.40730 18671 ft 424 kts 164°
2026-04-21 14:38 30.09020 115.41949 18671 ft 424 kts 164°
2026-04-21 14:38 30.06267 115.43166 18670 ft 424 kts 164°
2026-04-21 14:39 30.03510 115.44383 18670 ft 423 kts 164°
2026-04-21 14:39 30.00758 115.45597 18672 ft 423 kts 164°
2026-04-21 14:39 29.98013 115.46809 18668 ft 424 kts 165°
2026-04-21 14:39 29.95287 115.48012 18669 ft 424 kts 165°
2026-04-21 14:40 29.92529 115.49227 18670 ft 424 kts 165°
2026-04-21 14:40 29.89769 115.50441 18669 ft 424 kts 165°
2026-04-21 14:40 29.87008 115.51653 18671 ft 424 kts 165°
2026-04-21 14:40 29.84251 115.52867 18670 ft 424 kts 165°
2026-04-21 14:41 29.81831 115.53931 18667 ft 423 kts 165°
2026-04-21 14:41 29.79076 115.55142 18666 ft 423 kts 165°
2026-04-21 14:41 29.76322 115.56351 18675 ft 423 kts 165°
2026-04-21 14:41 29.73566 115.57559 18677 ft 423 kts 165°
2026-04-21 14:42 29.70811 115.58766 18679 ft 423 kts 165°
2026-04-21 14:42 29.68056 115.59972 18677 ft 423 kts 165°
2026-04-21 14:42 29.65302 115.61177 18678 ft 423 kts 165°
2026-04-21 14:42 29.62589 115.62363 18677 ft 423 kts 165°
2026-04-21 14:43 29.59833 115.63568 18677 ft 423 kts 165°
2026-04-21 14:43 29.57085 115.64768 18676 ft 423 kts 165°
2026-04-21 14:43 29.54336 115.65972 18678 ft 423 kts 165°
2026-04-21 14:43 29.51583 115.67179 18680 ft 423 kts 165°
2026-04-21 14:44 29.48833 115.68384 18677 ft 423 kts 165°
2026-04-21 14:44 29.46082 115.69587 18679 ft 423 kts 165°
2026-04-21 14:44 29.43333 115.70789 18672 ft 423 kts 165°
2026-04-21 14:44 29.41512 115.71584 18674 ft 423 kts 165°
2026-04-21 14:45 29.38761 115.72785 18684 ft 423 kts 165°
2026-04-21 14:45 29.36006 115.73986 18691 ft 423 kts 165°
2026-04-21 14:45 29.33249 115.75154 18687 ft 422 kts 167°
2026-04-21 14:45 29.30458 115.76168 18686 ft 420 kts 168°
2026-04-21 14:46 29.27660 115.77153 18687 ft 420 kts 169°
2026-04-21 14:46 29.24863 115.78133 18689 ft 420 kts 169°
2026-04-21 14:46 29.22062 115.79116 18693 ft 420 kts 169°
2026-04-21 14:46 29.19272 115.80092 18682 ft 420 kts 169°
2026-04-21 14:47 29.16476 115.81065 18688 ft 420 kts 169°
2026-04-21 14:47 29.13675 115.82039 18684 ft 420 kts 169°
2026-04-21 14:47 29.10853 115.82707 18613 ft 408 kts 183°
2026-04-21 14:47 29.08106 115.82375 18129 ft 391 kts 200°
2026-04-21 14:48 29.05585 115.81256 17393 ft 387 kts 208°
2026-04-21 14:48 29.03142 115.80050 17008 ft 379 kts 207°
2026-04-21 14:48 29.00735 115.78875 16580 ft 372 kts 207°
2026-04-21 14:48 28.98380 115.77734 16182 ft 365 kts 207°
2026-04-21 14:49 28.96061 115.76617 15793 ft 359 kts 207°
2026-04-21 14:49 28.93781 115.75522 15421 ft 352 kts 207°
2026-04-21 14:49 28.91541 115.74447 15022 ft 346 kts 207°
2026-04-21 14:49 28.89339 115.73389 14638 ft 341 kts 207°
2026-04-21 14:50 28.87171 115.72346 14239 ft 336 kts 207°
2026-04-21 14:50 28.85034 115.71317 13850 ft 331 kts 207°
2026-04-21 14:50 28.82934 115.70307 13262 ft 323 kts 207°
2026-04-21 14:50 28.80905 115.69335 12692 ft 310 kts 207°
2026-04-21 14:51 28.78951 115.68397 12080 ft 300 kts 208°
2026-04-21 14:51 28.77065 115.67493 11514 ft 289 kts 208°
2026-04-21 14:51 28.75249 115.66620 11011 ft 279 kts 208°
2026-04-21 14:51 28.73483 115.65769 10400 ft 273 kts 207°
2026-04-21 14:52 28.71747 115.64934 9792 ft 269 kts 207°
2026-04-21 14:52 28.70036 115.64114 9274 ft 263 kts 206°
2026-04-21 14:52 28.68372 115.63319 8975 ft 255 kts 205°
2026-04-21 14:52 28.66712 115.62684 8566 ft 252 kts 187°
2026-04-21 14:53 28.65009 115.63091 8143 ft 257 kts 150°
2026-04-21 14:53 28.63817 115.64608 7729 ft 260 kts 118°
2026-04-21 14:53 28.63182 115.66524 7331 ft 256 kts 111°
2026-04-21 14:53 28.62643 115.68441 6963 ft 252 kts 108°
2026-04-21 14:54 28.62570 115.70392 6678 ft 255 kts 74°
2026-04-21 14:54 28.63274 115.72262 6441 ft 252 kts 65°
2026-04-21 14:54 28.64024 115.74024 6211 ft 248 kts 66°
2026-04-21 14:54 28.64747 115.75795 5981 ft 245 kts 68°
2026-04-21 14:55 28.65436 115.77557 5725 ft 242 kts 68°
2026-04-21 14:55 28.66104 115.79313 5465 ft 240 kts 66°
2026-04-21 14:55 28.67120 115.80810 5157 ft 242 kts 36°
2026-04-21 14:55 28.68591 115.81716 4928 ft 239 kts 22°
2026-04-21 14:56 28.70143 115.82389 4666 ft 238 kts 20°
2026-04-21 14:56 28.71684 115.83062 4415 ft 236 kts 22°
2026-04-21 14:56 28.73195 115.83773 4174 ft 234 kts 23°
2026-04-21 14:56 28.74682 115.84501 3920 ft 232 kts 24°
2026-04-21 14:57 28.76151 115.85219 3477 ft 228 kts 20°
2026-04-21 14:57 28.77597 115.85904 3001 ft 218 kts 24°
2026-04-21 14:57 28.78933 115.86590 2533 ft 207 kts 23°
2026-04-21 14:57 28.80307 115.87283 1552 ft 222 kts 23°
2026-04-21 14:58 28.81712 115.87982 985 ft 215 kts 24°
2026-04-21 14:58 28.83062 115.88610 601 ft 201 kts 24°
2026-04-21 14:58 28.84285 115.89209 387 ft 182 kts 22°
2026-04-21 14:58 28.85409 115.89747 145 ft 166 kts 22°
2026-04-21 14:59 28.86236 115.90146 148 ft 86 kts 22°
2026-04-21 14:59 28.86636 115.90342 154 ft 32 kts 25°